NOAA 16 DEB, 41532

Orbit data source: Space-Track

NOAA 16 DEB, 41532 is space debris in SSO originally from a launch on Thu, 21 Sep 2000 UTC launched from the Air Force Western Test Range (AFWTR). Debris objects in space refer to the collection of defunct objects orbiting the Earth. Examples of debris include non-operational satellites, rocket bodies, and fragments generated from explosions, collisions, or faulty payload assembly.

Loading next visibility...
Identifier
41532, 2000-055NG
Orbit
SSO
Country
Flag of USUS
Related business
Manufacturer
Unknown
Mission
Spacecraft
Bus & Motor
Unknown
Mass
Unknown
Launch date (UTC)
2000-09-21 (25 years ago)
Launch vehicle
Unknown
Launch site
Air Force Western Test Range (AFWTR)
Object type
Payload
Rocket body
Debris
Shape & HBR
Unknown shape, 0.1 m
Radar Cross Section
Small (<0.1 m²)

Expand to show TLE details & history
Last TLE update: 14 hours ago

TLE from 14 hours ago
0 NOAA 16 DEB
1 41532U 00055NG  26074.09134720  .00005270  00000-0  19181-2 0  9996
2 41532  98.7329 173.9494 0010994  93.6612 266.5830 14.33560459512819
Epoch: 2026-03-15T02:11Z
TLE epoch observation values (Epoch: 2026-03-15T02:11:32.398Z)
Latitude
0.00007°
Longitude
-31.63875°
Altitude
783.264 km
Speed
7.462 km/s
True Right ascension
11h 35m 47s
True Declination
0° 00' 00"
Sunlit
Object was in full shadow at epoch
Visualization orbit readout
Latitude
Unknown
Longitude
Unknown
Altitude
Unknown
Speed
Unknown
Apparent Right ascension
Unknown
Apparent Declination
Unknown
Sunlit
N/A
Visualization observer readout
Local Sidereal Time
20:18:27
Azimuth
Unknown
Elevation
Unknown
Doppler factor
Unknown
Orbital elements
Apogee altitude
784.862 km
Perigee altitude
769.13 km
Semi-major axis
7,155.133 km
Eccentricity
0.0011
Inclination
98.7329°
RAAN
173.9494°
Arg. of periapsis
93.6612°
True anomaly
266.45725°
Mean anomaly
266.583°
Eccentric anomaly
266.52013°
Mean motion
3.58605 °/min
Orbital period
100.39 mins
BSTAR
0.0019181
Loading maneuver chart data...
Computing Atmospheric mass density...
Loading historical data...
Loading historical data...
Loading historical data...
Loading historical data...
Loading historical data...
Loading historical data...
Loading historical data...

Documentation

Showing up to 5 results
|